#timestamp,LO_Frequency,Hit,StdDev 
1607834635.4,286046998.5,P
1607834655.2,286047000.3,N
1607834675.1,286047001.0,N
1607834676.0,286047001.0,N
1607834695.8,286047000.0,N
1607834715.7,286047000.1,N
1607834735.5,286047005.6,Y
1607834755.3,286047005.6,P
1607834775.2,286047004.1,N
1607834795.0,286047004.9,N
1607834795.9,286047004.9,N
1607834815.7,286047001.6,N
1607834835.6,286047002.2,N
1607834855.4,286047001.8,N
1607834875.3,286047001.6,N
1607834895.1,286046999.7,N
1607834896.0,286046999.7,N
1607834915.8,286046998.6,N
1607834935.7,286046997.1,N
1607834955.5,286046997.8,N
1607834975.3,286046997.1,N
1607834995.2,286046997.5,N
1607835015.0,286046997.3,N
1607835015.9,286046997.3,N
1607835035.8,286046995.6,N
1607835055.6,286046996.0,N
1607835075.4,286046993.7,N
1607835095.3,286046994.0,N
1607835115.1,286046994.3,N
1607835135.9,286046993.9,N
1607835155.7,286046993.6,N
1607835175.5,286046993.5,N
1607835195.4,286046995.0,N
1607835215.2,286046994.9,N
1607835235.0,286046996.1,N
1607835235.9,286046996.1,N
1607835255.8,286046994.1,N
1607835275.6,286046996.1,N
1607835295.5,286046993.3,N
1607835315.3,286046992.6,N
1607835335.1,286046990.8,N
1607835355.9,286046990.8,Y
1607835375.7,286046996.2,P
1607835395.5,286046995.9,P
1607835415.4,286046994.0,P
1607835435.2,286046993.7,Y
1607835455.1,286046998.1,P
1607835456.0,286046998.1,N
1607835475.8,286046999.3,N
1607835495.6,286046996.7,N
1607835515.5,286046996.5,N
1607835535.3,286046997.6,N
1607835555.1,286046997.2,N
1607835575.9,286046997.1,N
1607835595.7,286046996.7,Y
